Flag for Norway Weather past 2 weeks in Vestby, Norway

Now
63 °F

Mild.


Feels Like: 63 °F
Forecast: 62 / 77 °F
Wind: 1 mph from North

Location: Rygge

Current Time: Jul 26, 2014 at 5:51:26 AM

Latest Report: Jul 26, 2014 at 4:50 AM


Visibility: N/A

Pressure: 30.09 "Hg

Humidity: 83%

Dew point: 57 °F

Location of VestbyLocation

Historic Weather in Vestby — Graph

°F

Vestby temperature yesterday

Maximum temperature yesterday: 88 °F (at 2:50 PM)
Minimum temperature yesterday: 63 °F (at 4:50 AM)
Average temperature yesterday: 77 °F

Past Weeks' High & Low Weather Summary

 TemperatureHumidityPressure
High91 °F (Jul 23, 5:20 PM)100% (Jul 17, 2:20 AM)30.30 "Hg (Jul 17, 2:20 AM)
Low54 °F (Jul 19, 4:50 AM)26% (Jul 23, 5:50 PM)29.62 "Hg (Jul 13, 8:50 PM)
Average70 °F64%30.04 "Hg
* Reported Jul 11 4:20 AM — Jul 26 4:20 AM, Vestby, Weather by CustomWeather, © 2014

Note: Actual official high and low records may vary slightly from our data, if they occured in-between our weather recording intervals... More about our weather records

Advertising

Vestby weather history for previous 24 hours

 ConditionsComfort  
Time TempWeatherWind HumidityBarometerVisibility
4:20 AM
Jul 26
63 °FMild.3 mph83%30.12 "HgN/A
3:50 AM64 °FMild.3 mph78%30.12 "HgN/A
3:20 AM64 °FMild.2 mph78%30.12 "HgN/A
2:50 AM64 °FMild.2 mph83%30.12 "HgN/A
2:20 AM66 °FClear.2 mph78%30.12 "Hg10 mi
1:50 AM66 °FMild.3 mph78%30.12 "HgN/A
1:20 AM68 °FClear.2 mph73%30.12 "Hg10 mi
12:50 AM70 °FClear.3 mph69%30.12 "Hg10 mi
12:20 AM70 °FClear.1 mph69%30.12 "Hg10 mi
11:50 PM
Jul 25
72 °FClear.2 mph65%30.12 "Hg10 mi
11:20 PM73 °FPassing clouds.3 mph61%30.12 "HgN/A
10:50 PM75 °FPassing clouds.5 mph54%30.12 "HgN/A
10:20 PM77 °FSunny.1 mph51%30.12 "Hg10 mi
9:50 PM81 °FSunny.5 mph42%30.12 "Hg10 mi
9:20 PM81 °FPassing clouds.3 mph45%30.12 "HgN/A
8:50 PM82 °FSunny.7 mph42%30.12 "Hg10 mi
8:20 PM84 °FSunny.6 mph31%30.12 "Hg10 mi
7:50 PM86 °FSunny.7 mph29%30.12 "Hg10 mi
7:20 PM86 °FSunny.6 mph29%30.09 "Hg10 mi
6:50 PM86 °FSunny.7 mph31%30.12 "Hg10 mi
6:20 PM86 °FPassing clouds.6 mph31%30.12 "HgN/A
5:50 PM88 °FSunny.3 mph29%30.12 "Hg10 mi
5:20 PM88 °FPassing clouds.7 mph29%30.12 "HgN/A
4:50 PM88 °FSunny.3 mph29%30.12 "Hg10 mi
4:20 PM86 °FPassing clouds.7 mph31%30.12 "HgN/A
3:50 PM84 °FScattered showers. Scattered clouds.6 mph33%30.15 "HgN/A
3:20 PM86 °FPassing clouds.6 mph33%30.15 "HgN/A
2:50 PM88 °FPassing clouds.8 mph35%30.15 "HgN/A
2:20 PM86 °FPassing clouds.7 mph38%30.15 "HgN/A
1:50 PM86 °FPassing clouds.7 mph40%30.18 "HgN/A
1:20 PM84 °FPassing clouds.7 mph43%30.18 "HgN/A
12:50 PM86 °FSunny.3 mph38%30.18 "Hg10 mi
12:20 PM86 °FSunny.3 mph40%30.18 "Hg10 mi
11:50 AM84 °FSunny.3 mph40%30.18 "Hg10 mi
11:20 AM82 °FPassing clouds.5 mph42%30.18 "HgN/A
10:50 AM81 °FPassing clouds.5 mph48%30.21 "HgN/A
10:20 AM79 °FPassing clouds.6 mph51%30.21 "HgN/A
9:50 AM79 °FSunny.5 mph51%30.21 "Hg10 mi
9:20 AM75 °FPassing clouds.6 mph57%30.18 "HgN/A
8:50 AM73 °FSunny.7 mph61%30.21 "Hg10 mi
8:20 AM73 °FPassing clouds.7 mph61%30.21 "HgN/A
7:50 AM72 °FPassing clouds.6 mph69%30.21 "HgN/A
7:20 AM70 °FPassing clouds.6 mph73%30.21 "HgN/A
6:50 AM68 °FSunny.6 mph78%30.21 "Hg10 mi
6:20 AM66 °FSunny.6 mph83%30.21 "Hg10 mi
5:50 AM64 °FPassing clouds.5 mph88%30.21 "HgN/A
5:20 AM64 °FPassing clouds.5 mph83%30.21 "HgN/A
Weather by CustomWeather, © 2014

See weather overviewHow to use our weather pages